#timestamp,LO_Frequency,Hit,StdDev 
1622106015.4,286046993.6,N
1622106035.3,286046991.7,N
1622106055.1,286046992.9,N
1622106075.9,286046997.3,N
1622106095.7,286047011.1,N
1622106115.5,286047024.9,Y
1622106135.4,286047044.4,P
1622106155.2,286047052.6,N
1622106175.0,286047047.2,N
1622106176.0,286047047.2,N
1622106195.8,286047042.2,N
1622106215.6,286047034.0,N
1622106235.5,286047025.4,N
1622106255.3,286047018.2,N
1622106275.1,286047016.8,N
1622106295.9,286047018.3,N
1622106315.7,286047020.2,N
1622106335.5,286047016.2,N
1622106355.4,286047013.2,N
1622106375.2,286047012.3,N
1622106395.1,286047006.6,N
1622106396.0,286047006.6,N
1622106415.8,286047003.0,N
1622106435.6,286046999.1,N
1622106455.5,286046994.3,N
1622106475.3,286046992.7,N
1622106495.2,286046989.2,N
1622106515.9,286046983.8,N
1622106535.7,286046989.5,N
1622106555.6,286046996.0,N
1622106575.4,286046996.8,N
1622106595.2,286047003.7,N
1622106615.1,286047000.0,N
1622106616.0,286047000.0,N
1622106635.8,286046998.0,N
1622106655.7,286046995.6,N
1622106675.5,286046996.3,N
1622106695.3,286046990.9,N
1622106715.2,286046987.7,N
1622106735.0,286046990.2,N
1622106735.9,286046990.2,N
1622106755.8,286047002.2,N
1622106775.6,286047001.8,N
1622106795.4,286047003.8,N
1622106815.3,286047005.9,N
1622106835.1,286047001.0,N
1622106855.8,286046995.1,N
1622106875.7,286046992.5,N
1622106895.5,286046988.4,N
1622106915.4,286046977.5,Y
1622106935.2,286046975.2,P
1622106955.0,286046970.2,N
1622106955.9,286046970.2,N
1622106975.8,286046964.9,Y
1622106995.6,286046987.9,P
1622107015.5,286046993.5,N
1622107035.3,286047003.7,N
1622107055.1,286047003.7,N
1622107075.9,286046998.5,N
1622107095.7,286046999.6,N
1622107115.5,286046995.0,N
1622107135.4,286046994.6,N
1622107155.2,286046991.3,N
1622107175.1,286046991.3,N
1622107176.0,286046991.3,N
1622107195.8,286046987.4,N
1622107215.6,286046984.2,N
1622107235.5,286046981.8,N
1622107255.3,286046978.3,Y
1622107275.2,286046984.4,P
1622107295.9,286046984.1,P
1622107315.7,286046980.7,P
1622107335.6,286046978.1,Y
1622107355.4,286046989.2,P
1622107375.3,286046994.7,N
1622107395.1,286047001.2,N
1622107396.0,286047001.2,N
1622107415.8,286047005.2,N
1622107435.7,286047011.0,N
1622107455.5,286047025.8,Y
1622107475.3,286047032.7,P
1622107495.2,286047042.2,N
1622107515.0,286047052.0,N
1622107515.9,286047052.0,N
1622107535.8,286047054.8,N
1622107555.6,286047057.5,N
1622107575.4,286047060.8,Y
1622107595.3,286047014.7,P
1622107615.1,286047007.8,N
1622107635.9,286047004.8,N
1622107655.7,286047002.6,N
1622107675.5,286046992.9,N
1622107695.4,286046980.5,N
1622107715.2,286046974.6,N
1622107735.0,286046972.3,N
1622107735.9,286046972.3,N
1622107755.8,286046969.3,N
1622107775.6,286046972.6,N
1622107795.5,286046982.1,N
1622107815.3,286046991.5,N
1622107835.1,286046990.8,N
1622107855.9,286046991.9,N
1622107875.7,286046999.5,N
1622107895.5,286046999.5,N
1622107915.4,286047001.8,N
1622107935.2,286047012.3,N
1622107955.1,286047006.8,N
1622107956.0,286047006.8,N
1622107975.8,286046996.7,N
1622107995.6,286046996.4,N
1622108015.5,286046998.1,N
1622108035.3,286047010.3,N
1622108055.1,286047008.0,N
1622108075.9,286047004.5,N
1622108095.7,286047004.0,N
1622108115.6,286047013.2,N
1622108135.4,286047021.6,N
1622108155.2,286047022.5,N
1622108175.1,286047017.5,N
1622108176.0,286047017.5,N
1622108195.8,286047015.0,N
1622108215.7,286047011.3,N
1622108235.5,286047006.9,N
1622108255.4,286047000.9,N
1622108275.2,286047002.4,N
1622108295.0,286047008.3,N
1622108295.9,286047008.3,N
1622108315.8,286047012.1,N
1622108335.6,286047009.2,N
1622108355.4,286047005.7,N
1622108375.3,286047006.8,N
1622108395.1,286047000.4,N
1622108415.9,286047009.6,N
1622108435.7,286047010.8,N
1622108455.5,286047001.4,N
1622108475.4,286046999.5,N
1622108495.2,286046996.4,N
1622108515.0,286046991.8,N
1622108516.0,286046991.8,N
1622108535.8,286046990.6,N
1622108555.6,286046997.1,N
1622108575.5,286047000.2,N
1622108595.3,286047000.6,N
1622108615.1,286047004.5,N
1622108635.9,286047002.1,N
1622108655.7,286047001.7,N
1622108675.6,286047005.1,N
1622108695.4,286046998.6,N
1622108715.2,286046996.0,N
1622108735.1,286046987.1,N
1622108736.0,286046987.1,N
1622108755.8,286046981.0,N
1622108775.7,286046976.1,Y
1622108795.5,286046976.4,P
1622108815.3,286046976.7,N
1622108835.2,286046970.4,N
1622108855.0,286046963.6,Y
1622108855.9,286046963.6,P
1622108875.8,286046975.9,N
1622108895.6,286046971.6,P
1622108915.4,286046966.2,Y
1622108935.3,286046992.4,P
1622108955.1,286046995.8,N
1622108975.8,286046995.6,N
1622108995.7,286046992.0,N
1622109015.5,286046988.7,N
1622109035.4,286046984.9,N
1622109055.2,286046980.6,N
1622109075.0,286046979.3,N
1622109075.9,286046979.3,N
1622109095.8,286046986.0,N
1622109115.6,286046982.5,N
1622109135.4,286046985.5,N
1622109155.3,286047001.5,N
1622109175.1,286047006.3,N
1622109195.9,286047013.5,N
1622109215.7,286047011.2,N
1622109235.5,286047009.5,N
1622109255.4,286047004.9,N
1622109275.2,286047001.6,N
1622109295.0,286046998.8,N
1622109296.0,286046998.8,N
1622109315.8,286047003.4,N
1622109335.6,286047015.1,N
1622109355.5,286047007.6,N
1622109375.3,286046995.1,N
1622109395.1,286046983.7,N
1622109415.9,286046976.6,N
1622109435.7,286046968.2,N
1622109455.6,286046963.5,N
1622109475.4,286046960.1,N
1622109495.2,286046958.8,N
1622109515.1,286046957.9,N
1622109516.0,286046957.9,N
1622109535.8,286046961.3,N
1622109555.6,286046981.0,N
1622109575.5,286046979.6,N
1622109595.3,286046979.1,N
